Location: Newark
(39.8850°N, 17.2769°E)
Time: 15:00:55
(UTC+00:00)

ISS - Visible Passes

Search period start: 21 November 2019 00:00
Search period end: 01 December 2019 00:00
Orbit: 412 x 421 km, 51.6° (Epoch: 22 November)

Date Brightness Start Highest point End Pass type
(mag) Time Alt. Az. Time Alt. Az. Time Alt. Az.
21 Nov -2.5 16:39:23 10° SSW 16:42:12 26° SE 16:43:06 23° ESE visible
21 Nov -0.3 18:15:42 10° W 18:16:02 12° W 18:16:02 12° W visible
22 Nov -3.0 17:27:04 10° WSW 17:29:53 51° WNW 17:29:53 51° WNW visible
23 Nov -3.8 16:38:38 10° SW 16:41:58 79° SE 16:43:39 27° ENE visible
23 Nov -0.2 18:16:32 10° WNW 18:16:34 10° WNW 18:16:34 10° WNW visible
24 Nov -2.0 17:27:34 10° W 17:30:15 26° NNW 17:30:15 26° NNW visible
25 Nov -2.7 16:38:45 10° W 16:41:54 38° NNW 16:43:52 19° NNE visible
26 Nov -1.3 17:28:32 10° WNW 17:30:19 16° NNW 17:30:19 16° NNW visible
27 Nov -1.7 16:39:26 10° WNW 16:42:00 20° NNW 16:43:49 14° NNE visible
28 Nov -0.9 17:29:38 10° NNW 17:30:11 11° NNW 17:30:11 11° NNW visible
29 Nov -1.3 16:40:29 10° NW 16:42:14 13° NNW 16:43:37 11° NNE visible
